OBJECT C, 59807

Orbit data source: Space-Track

You're viewing an Uncataloged Satellite

Recently launched and/or uncataloged satellites may have evolving metadata. Metadata may include but not limited to: Owner, Maufacturer, Bus, Motor, and Mission.

OBJECT C, 59807 is a satellite owned by 21AT (CN) in SSO that was launched on Mon, 20 May 2024 UTC via a CHANG ZHENG 2D launch vehicle from the Taiyaun Space Center, China (TSC). Unknown objects in Earth's orbit typically refer to objects detected orbiting the Earth but have not yet been identified or cataloged. These objects could be anything from previously untracked satellites, spent rocket stages, debris from satellite collisions, or even natural meteoroids temporarily captured by Earth's gravity.

Loading next visibility...
Identifier
59807, 2024-094C
Orbit
SSO
Country
Flag of CNCN / PRC
Related business
Manufacturer
DFH
Mission
Operational Commercial Imaging
Bus & Motor
BJ3C, Unknown motor
Mass
~1,000 kg wet, ~1,000 kg dry
Launch date (UTC)
2024-05-20 (2 years ago)
Launch vehicle
CHANG ZHENG 2D
Launch site
Taiyaun Space Center, China (TSC)
Object type
Unknown
Shape & HBR
Hex Cyl + 3 Pan, 2.5 m
Radar Cross Section
2.703 m², Large (>1 m²)

Expand to show TLE details & history
Last TLE update: 22 hours ago

TLE from 22 hours ago
0 OBJECT C
1 59807U 24094C   26172.50390836  .00004573  00000-0  23532-3 0  9997
2 59807  97.3915 243.5919 0003314 170.0164 190.1136 15.16911828115817
Epoch: 2026-06-21T12:05Z
TLE epoch observation values (Epoch: 2026-06-21T12:05:37.682Z)
Latitude
-0°
Longitude
152.48166°
Altitude
520.517 km
Speed
7.602 km/s
True Right ascension
16h 14m 22s
True Declination
0° 00' 00"
Sunlit
Object was in full shadow at epoch
Visualization orbit readout
Latitude
Unknown
Longitude
Unknown
Altitude
Unknown
Speed
Unknown
Apparent Right ascension
Unknown
Apparent Declination
Unknown
Sunlit
N/A
Visualization observer readout
Local Sidereal Time
21:29:05
Azimuth
Unknown
Elevation
Unknown
Doppler factor
Unknown
Orbital elements
Apogee altitude
514.433 km
Perigee altitude
509.866 km
Semi-major axis
6,890.287 km
Eccentricity
0.00033
Inclination
97.3915°
RAAN
243.5919°
Arg. of periapsis
170.0164°
True anomaly
190.10693°
Mean anomaly
190.1136°
Eccentric anomaly
190.11027°
Mean motion
3.79479 °/min
Orbital period
94.87 mins
BSTAR
0.00023532
Loading maneuver chart data...
Computing Atmospheric mass density...
Loading historical data...
Loading historical data...
Loading historical data...
Loading historical data...
Loading historical data...
Loading historical data...
Loading historical data...
Other satellites on launch #94 in the year 2024 (2024-05-20 UTC)

Documentation

Showing up to 5 results
|